[TLELIST] Archives

 

[TLELIST] Current TLEs

January 29th 2024 PDT

HST 1 20580U 90037B 24028.89737336 .00004915 00000-0 24132-3 0 9990 2 20580 28.4665 203.5540 0002310 320.3589 39.6834 15.15718384655971 ISS (ZARYA) 1 25544U 98067A 24029.19771047 .00016873 00000-0 31015-3 0 9991 2 25544 51.6422 289.0303 0002547 174.4341 285.5017 15.49331920436849 CXO 1 25867U 99040B 24027.71675503 .00000624 00000-0 00000+0 0 9990 2 25867 38.5126 168.4056 8999355 285.5718 0.1832 0.37808521 25183 ...Continue Reading

[TLELIST] Current TLEs

January 29th 2024 PDT

HST 1 20580U 90037B 24028.89737336 .00004915 00000-0 24132-3 0 9990 2 20580 28.4665 203.5540 0002310 320.3589 39.6834 15.15718384655971 ISS (ZARYA) 1 25544U 98067A 24029.19771047 .00016873 00000-0 31015-3 0 9991 2 25544 51.6422 289.0303 0002547 174.4341 285.5017 15.49331920436849 CXO 1 25867U 99040B 24027.71675503 .00000624 00000-0 00000+0 0 9990 2 25867 38.5126 168.4056 8999355 285.5718 0.1832 0.37808521 25183 ...Continue Reading

[TLELIST] Current TLEs

January 28th 2024 PDT

HST 1 20580U 90037B 24027.90970843 .00005061 00000-0 24884-3 0 9990 2 20580 28.4665 210.1515 0002333 308.9557 51.0827 15.15709877655561 ISS (ZARYA) 1 25544U 98067A 24028.23709275 .00046832 00000-0 84385-3 0 9995 2 25544 51.6473 293.7814 0003807 190.2187 308.3251 15.49308982436697 CXO 1 25867U 99040B 24027.71675503 .00000624 00000-0 00000+0 0 9990 2 25867 38.5126 168.4056 8999355 285.5718 0.1832 0.37808521 25183 ...Continue Reading

[TLELIST] Current TLEs

January 28th 2024 PDT

HST 1 20580U 90037B 24027.90970843 .00005061 00000-0 24884-3 0 9990 2 20580 28.4665 210.1515 0002333 308.9557 51.0827 15.15709877655561 ISS (ZARYA) 1 25544U 98067A 24028.23709275 .00046832 00000-0 84385-3 0 9995 2 25544 51.6473 293.7814 0003807 190.2187 308.3251 15.49308982436697 CXO 1 25867U 99040B 24027.71675503 .00000624 00000-0 00000+0 0 9990 2 25867 38.5126 168.4056 8999355 285.5718 0.1832 0.37808521 25183 ...Continue Reading

[TLELIST] Current TLEs

January 27th 2024 PDT

HST 1 20580U 90037B 24026.79034837 .00006201 00000-0 30715-3 0 9997 2 20580 28.4667 217.6279 0002353 294.7985 65.2362 15.15700529655657 ISS (ZARYA) 1 25544U 98067A 24027.19735782 .00020113 00000-0 35977-3 0 9998 2 25544 51.6431 298.9383 0005137 133.8005 321.1161 15.49970022436535 CXO 1 25867U 99040B 24027.71675503 .00000624 00000-0 00000+0 0 9990 2 25867 38.5126 168.4056 8999355 285.5718 0.1832 0.37808521 25183 ...Continue Reading

[TLELIST] Current TLEs

January 27th 2024 PDT

HST 1 20580U 90037B 24026.79034837 .00006201 00000-0 30715-3 0 9997 2 20580 28.4667 217.6279 0002353 294.7985 65.2362 15.15700529655657 ISS (ZARYA) 1 25544U 98067A 24027.19735782 .00020113 00000-0 35977-3 0 9998 2 25544 51.6431 298.9383 0005137 133.8005 321.1161 15.49970022436535 CXO 1 25867U 99040B 24027.71675503 .00000624 00000-0 00000+0 0 9990 2 25867 38.5126 168.4056 8999355 285.5718 0.1832 0.37808521 25183 ...Continue Reading

[TLELIST] Current TLEs

January 26th 2024 PDT

HST 1 20580U 90037B 24025.86851643 .00006533 00000-0 32420-3 0 9999 2 20580 28.4665 223.7855 0002295 279.3404 80.6929 15.15691087655257 ISS (ZARYA) 1 25544U 98067A 24026.23068080 .00025200 00000-0 44884-3 0 9991 2 25544 51.6422 303.7200 0005197 134.1814 323.3146 15.49944301436387 CXO 1 25867U 99040B 24025.07214892 .00000543 00000-0 00000-0 0 9998 2 25867 38.4747 168.7210 9001797 285.3113 0.1878 0.37805963 14026 ...Continue Reading

[TLELIST] Current TLEs

January 26th 2024 PDT

HST 1 20580U 90037B 24025.86851643 .00006533 00000-0 32420-3 0 9999 2 20580 28.4665 223.7855 0002295 279.3404 80.6929 15.15691087655257 ISS (ZARYA) 1 25544U 98067A 24026.23068080 .00025200 00000-0 44884-3 0 9991 2 25544 51.6422 303.7200 0005197 134.1814 323.3146 15.49944301436387 CXO 1 25867U 99040B 24025.07214892 .00000543 00000-0 00000-0 0 9998 2 25867 38.4747 168.7210 9001797 285.3113 0.1878 0.37805963 14026 ...Continue Reading

[TLELIST] Current TLEs

January 25th 2024 PDT

HST 1 20580U 90037B 24024.94667917 .00006381 00000-0 31652-3 0 9993 2 20580 28.4664 229.9426 0002194 266.0618 93.9723 15.15680148655374 ISS (ZARYA) 1 25544U 98067A 24025.20195946 .00025817 00000-0 46043-3 0 9992 2 25544 51.6428 308.8142 0004911 128.6675 345.0839 15.49894888436227 CXO 1 25867U 99040B 24025.07214892 .00000543 00000-0 00000-0 0 9998 2 25867 38.4747 168.7210 9001797 285.3113 0.1878 0.37805963 14026 ...Continue Reading

[TLELIST] Current TLEs

January 25th 2024 PDT

HST 1 20580U 90037B 24024.94667917 .00006381 00000-0 31652-3 0 9993 2 20580 28.4664 229.9426 0002194 266.0618 93.9723 15.15680148655374 ISS (ZARYA) 1 25544U 98067A 24025.20195946 .00025817 00000-0 46043-3 0 9992 2 25544 51.6428 308.8142 0004911 128.6675 345.0839 15.49894888436227 CXO 1 25867U 99040B 24025.07214892 .00000543 00000-0 00000-0 0 9998 2 25867 38.4747 168.7210 9001797 285.3113 0.1878 0.37805963 14026 ...Continue Reading
  • This mailing list is a public mailing list - anyone may join or leave, at any time.
  • This mailing list is announce-only.

International Space Station (ISS) / Hubble Space Telescope (HST) / Chandra X-Ray Observatory Orbital Data via EMAIL

Privacy Policy:

Private list